Flag for India Weather past 2 weeks in Thiruvananthapuram, Kerala, India

Now
81 °F

Broken clouds.


Feels Like: 87 °F
Forecast: 75 / 83 °F
Wind: 3 mph from Southwest

Location: Thiruvananthapuram

Current Time: Dec 19, 2014 at 3:35:08 PM

Latest Report: Dec 19, 2014 at 1:40 PM


Visibility: 2 mi

Pressure: 29.83 "Hg

Humidity: 89%

Dew point: 77 °F

Location of ThiruvananthapuramLocation

Historic Weather in Thiruvananthapuram — Graph

°F

Thiruvananthapuram temperature yesterday

Maximum temperature yesterday: 88 °F (at 1:10 PM)
Minimum temperature yesterday: 79 °F (at 4:10 AM)
Average temperature yesterday: 84 °F

Past Weeks' High & Low Weather Summary

 TemperatureHumidityPressure
High90 °F (Dec 4, 1:40 PM)100% (Dec 10, 10:10 AM)29.92 "Hg (Dec 10, 10:10 AM)
Low73 °F (Dec 8, 6:10 AM)38% (Dec 14, 3:10 PM)29.74 "Hg (Dec 7, 3:10 PM)
Average82 °F81%29.84 "Hg
* Reported Dec 4 1:40 PM — Dec 19 1:40 PM, Thiruvananthapuram, Weather by CustomWeather, © 2014

Note: Actual official high and low records may vary slightly from our data, if they occured in-between our weather recording intervals... More about our weather records

Advertising

Thiruvananthapuram weather history for previous 24 hours

 ConditionsComfort  
Time TempWeatherWind HumidityBarometerVisibility
1:40 PM
Dec 19
81 °FBroken clouds.3 mph89%29.83 "Hg2 mi
12:40 PM86 °FLight rain. Broken clouds.3 mph79%29.86 "Hg3 mi
12:10 PM88 °FScattered clouds.6 mph75%29.89 "Hg3 mi
11:40 AM86 °FScattered clouds.6 mph79%29.89 "Hg3 mi
11:10 AM86 °FBroken clouds.5 mph79%29.89 "Hg3 mi
10:10 AM84 °FBroken clouds.3 mph79%29.92 "Hg2 mi
9:40 AM82 °FPartly sunny.3 mph79%29.92 "Hg2 mi
9:10 AM82 °FBroken clouds.No wind79%29.92 "Hg2 mi
8:40 AM81 °FBroken clouds.No wind84%29.89 "Hg2 mi
8:10 AM81 °FBroken clouds.No wind84%29.89 "Hg2 mi
7:40 AM79 °FBroken clouds.No wind89%29.89 "Hg2 mi
7:10 AM79 °FDrizzle. Broken clouds.No wind84%29.86 "Hg2 mi
6:40 AM77 °FPartly cloudy.No wind89%29.86 "Hg2 mi
5:40 AM77 °FPartly cloudy.No wind89%29.83 "Hg2 mi
4:40 AM77 °FPartly cloudy.No wind89%29.80 "Hg2 mi
1:40 AM79 °FPartly cloudy.No wind89%29.83 "Hg2 mi
1:10 AM79 °FPartly cloudy.No wind89%29.86 "Hg2 mi
12:40 AM79 °FPartly cloudy.No wind89%29.86 "Hg2 mi
12:10 AM79 °FPartly cloudy.No wind89%29.86 "Hg2 mi
11:40 PM
Dec 18
81 °FPassing clouds.No wind84%29.86 "Hg2 mi
10:40 PM81 °FPassing clouds.No wind84%29.86 "Hg2 mi
10:10 PM81 °FPassing clouds.No wind84%29.86 "Hg2 mi
9:40 PM81 °FPassing clouds.No wind84%29.86 "Hg2 mi
8:40 PM82 °FPassing clouds.No wind84%29.86 "Hg2 mi
7:40 PM84 °FPassing clouds.No wind79%29.83 "Hg2 mi
7:10 PM84 °FPassing clouds.No wind79%29.80 "Hg3 mi
6:40 PM84 °FPassing clouds.No wind79%29.80 "Hg3 mi
6:10 PM86 °FScattered clouds.3 mph75%29.77 "Hg3 mi
5:40 PM86 °FScattered clouds.3 mph75%29.77 "Hg3 mi
5:10 PM86 °FScattered clouds.3 mph75%29.74 "Hg3 mi
4:40 PM86 °FBroken clouds.3 mph70%29.74 "Hg3 mi
3:40 PM88 °FBroken clouds.5 mph66%29.74 "Hg3 mi
3:10 PM86 °FBroken clouds.3 mph70%29.74 "Hg3 mi
Weather by CustomWeather, © 2014

See weather overviewHow to use our weather pages